Location: The Stocker AstroScience Center
(25.7579°N, 80.3725°W)
Time: 06:51:43
(UTC-05:00)

ISS - All Passes

Search period start: 08 December 2016 00:00
Search period end: 18 December 2016 00:00
Orbit: 401 x 410 km, 51.6° (Epoch: 08 December)

Date Brightness Start Highest point End Pass type
(mag) Time Alt. Az. Time Alt. Az. Time Alt. Az.
08 Dec - 13:23:03 10° SSE 13:24:22 12° SE 13:25:41 10° E daylight
08 Dec - 14:57:37 10° WSW 15:00:35 31° NW 15:03:34 10° NNE daylight
08 Dec - 23:07:45 10° NW 23:11:01 65° NE 23:14:17 10° SE night (unlit)
09 Dec - 14:05:23 10° SW 14:08:38 79° NW 14:11:54 10° NE daylight
09 Dec - 22:16:09 10° NNW 22:19:03 27° NE 22:21:56 10° ESE night (unlit)
09 Dec - 23:53:27 10° W 23:55:19 14° SW 23:57:10 10° SSW night (unlit)
10 Dec - 13:13:41 10° SSW 13:16:45 38° SE 13:19:49 10° ENE daylight
10 Dec - 14:51:57 10° WNW 14:53:20 12° NW 14:54:44 10° NNW daylight
10 Dec - 21:25:08 10° N 21:26:57 14° NE 21:28:47 10° ENE night (unlit)
10 Dec - 23:00:30 10° WNW 23:03:30 33° SW 23:06:30 10° SSE night (unlit)
11 Dec - 12:22:46 10° SSE 12:24:55 16° SE 12:27:04 10° E daylight
11 Dec - 13:58:31 10° W 14:01:13 24° NW 14:03:56 10° NNE daylight
11 Dec - 22:08:18 10° NW 22:11:36 86° SW 22:14:53 10° SE night (unlit)
12 Dec - 13:06:00 10° SW 13:09:12 54° NW 13:12:24 10° NNE daylight
12 Dec - 21:16:32 10° NNW 21:19:37 37° NE 21:22:42 10° ESE night (unlit)
12 Dec - 22:55:17 10° WSW 22:55:48 10° SW 22:56:19 10° SW night (unlit)
13 Dec - 12:14:03 10° SSW 12:17:14 56° SE 12:20:27 10° NE daylight
13 Dec - 20:25:11 10° N 20:27:32 18° NE 20:29:53 10° E night (unlit)
13 Dec - 22:01:16 10° WNW 22:03:58 23° SW 22:06:40 10° S night (unlit)
14 Dec - 11:22:44 10° S 11:25:21 22° SE 11:27:59 10° ENE daylight
14 Dec - 12:59:26 10° W 13:01:46 18° NW 13:04:07 10° N daylight
14 Dec - 21:08:49 10° NW 21:12:04 59° SW 21:15:18 10° SSE night (unlit)
15 Dec - 12:06:36 10° WSW 12:09:39 38° NW 12:12:44 10° NNE daylight
15 Dec - 20:16:51 10° NNW 20:20:04 52° NE 20:23:18 10° SE night (unlit)
16 Dec - 11:14:24 10° SW 11:17:38 83° SE 11:20:54 10° NE daylight
16 Dec - 19:25:16 10° NNW 19:27:59 23° NE 19:30:42 10° E visible
16 Dec - 21:02:03 10° W 21:04:19 17° SW 21:06:34 10° S night (unlit)
17 Dec - 10:22:46 10° SSW 10:25:41 31° SE 10:28:37 10° ENE daylight
17 Dec - 12:00:23 10° WNW 12:02:12 14° NW 12:04:02 10° N daylight
17 Dec - 18:34:26 10° NNE 18:35:47 12° NE 18:37:08 10° ENE visible
17 Dec - 20:09:17 10° WNW 20:12:24 40° SW 20:15:30 10° SSE night (unlit)
